Location: Unspecified
(40.7945°N, 111.1337°W)
Time: 12:31:16
(UTC-06:00)

CZ-3 Stage 3 - Pass Details

Date: 27 March 2019
Orbit: 493 x 34698 km, 30.5° (Epoch: 23 April)

Event Time Altitude Azimuth Distance (km) Brightness Sun altitude
Exits shadow 04:02:01 33° 175° (S) 3,788 5.6 -34.5°
Maximum altitude 04:08:41 44° 132° (SE) 5,130 6.6 -33.6°
Drops below altitude 10° 12:49:00 10° 141° (SE) 19,937 10.5 50.8°
Sets 13:06:37 0° 139° (SE) 17,272 9.9 51.6°
